World > North America > United States > Mississippi > Calhoun City  

Calhoun City, MS Hourly Weather Forecast

Feedback E-mail the Weather

Quick Clicks

Weather World

24 Hour Forecast

Current Conditions - Overcast. Temperature is 62°F17°C, dew point 57°F14°C, humidity 82%. Wind direction is VRB at 7 mph11 km/h with visibility of 10 mi16 km. Barometric pressure is 30.11 in1019 mb.
Today - Mostly cloudy. A slight chance of. Highs in the lower 70s. West winds 5 to 10 mph, becoming north this afternoon... Full Forecast
Tonight - Cloudy. Less humid with lows in the mid 50s. Northeast winds 5 to 10 mph... Full Forecast

Calhoun City Hourly Weather

24 Hour Weather Scroll
Fri, Apr 19
1:00 pm
Fri, Apr 19
2:00 pm
Fri, Apr 19
3:00 pm
Fri, Apr 19
4:00 pm
Fri, Apr 19
5:00 pm
Fri, Apr 19
6:00 pm
Fri, Apr 19
7:00 pm
Fri, Apr 19
8:00 pm
Fri, Apr 19
9:00 pm
Fri, Apr 19
10:00 pm
Fri, Apr 19
11:00 pm
Sat, Apr 20
Midnight
Sat, Apr 20
1:00 am
Sat, Apr 20
2:00 am
Sat, Apr 20
3:00 am
Sat, Apr 20
4:00 am
Sat, Apr 20
5:00 am
Sat, Apr 20
6:00 am
Sat, Apr 20
7:00 am
Sat, Apr 20
8:00 am
Sat, Apr 20
9:00 am
Sat, Apr 20
10:00 am
Sat, Apr 20
11:00 am
Sat, Apr 20
Noon
OvercastPatchy Rain NearbyPatchy Rain NearbyPatchy Rain NearbyPatchy Rain NearbyPatchy Rain NearbyPatchy Rain NearbyOvercast Overcast Overcast Patchy Rain NearbyPatchy Rain NearbyPatchy Rain NearbyPatchy Rain NearbyOvercast Overcast Overcast Overcast Overcast Overcast Patchy Rain NearbyLight DrizzlePatchy Rain NearbyOvercast
Overcast Patchy Rain Nearby Patchy Rain Nearby Patchy Rain Nearby Patchy Rain Nearby Patchy Rain Nearby Patchy Rain Nearby Overcast Overcast Overcast Patchy Rain Nearby Patchy Rain Nearby Patchy Rain Nearby Patchy Rain Nearby Overcast Overcast Overcast Overcast Overcast Overcast Patchy Rain Nearby Light Drizzle Patchy Rain Nearby Overcast
63°F17°C 65°F18°C 65°F18°C 64°F18°C 64°F18°C 63°F17°C 62°F17°C 62°F16°C 61°F16°C 61°F16°C 60°F15°C 59°F15°C 59°F15°C 59°F15°C 58°F14°C 57°F14°C 57°F14°C 56°F13°C 56°F13°C 55°F13°C 55°F13°C 55°F13°C 55°F13°C 56°F13°C
63°F
17°C
62°F
17°C
62°F
17°C
62°F
17°C
61°F
16°C
60°F
16°C
59°F
15°C
59°F
15°C
58°F
15°C
58°F
14°C
57°F
14°C
56°F
13°C
56°F
13°C
55°F
13°C
54°F
12°C
52°F
11°C
50°F
10°C
47°F
8°C
45°F
7°C
44°F
7°C
44°F
6°C
45°F
7°C
44°F
7°C
44°F
7°C
30.12 in
1020 mb
30.06 in
1018 mb
30.03 in
1017 mb
30.03 in
1017 mb
30.03 in
1017 mb
30.06 in
1018 mb
30.06 in
1018 mb
30.06 in
1018 mb
30.09 in
1019 mb
30.09 in
1019 mb
30.09 in
1019 mb
30.09 in
1019 mb
30.09 in
1019 mb
30.09 in
1019 mb
30.09 in
1019 mb
30.12 in
1020 mb
30.12 in
1020 mb
30.15 in
1021 mb
30.18 in
1022 mb
30.21 in
1023 mb
30.21 in
1023 mb
30.24 in
1024 mb
30.24 in
1024 mb
30.21 in
1023 mb
83%93%91%90%91%91%90%90%90%90%89%89%88%88%87%83%78%72%68%67%65%69%67%66%
NNENNENNNNNNENNENNENNENNENNENNENNENNENNENNENNENNENNENNENENNENNE
2 mph
4 km/h
8 mph
12 km/h
8 mph
12 km/h
7 mph
12 km/h
6 mph
10 km/h
7 mph
12 km/h
7 mph
12 km/h
7 mph
12 km/h
8 mph
12 km/h
8 mph
13 km/h
8 mph
13 km/h
8 mph
13 km/h
9 mph
14 km/h
9 mph
14 km/h
9 mph
15 km/h
10 mph
16 km/h
9 mph
15 km/h
9 mph
14 km/h
9 mph
15 km/h
10 mph
16 km/h
11 mph
18 km/h
9 mph
15 km/h
9 mph
15 km/h
10 mph
15 km/h
63%81%66%100%100%79%87%0%0%0%67%87%86%79%0%0%0%0%0%0%75%100%65%0%
10 mi
16 km
6 mi
10 km
6 mi
10 km
6 mi
10 km
6 mi
10 km
6 mi
10 km
6 mi
10 km
6 mi
10 km
6 mi
10 km
6 mi
10 km
6 mi
10 km
6 mi
10 km
6 mi
10 km
6 mi
10 km
6 mi
10 km
6 mi
10 km
6 mi
10 km
6 mi
10 km
6 mi
10 km
6 mi
10 km
6 mi
10 km
1 mi
2 km
6 mi
10 km
6 mi
10 km

Day/Time
Weather
Condition
Temperature
Dew Point
Pressure
Humidity
Wind Direction
Wind Speed
Prob Precip %
Visibility
POP = Probability of Precipitation. ** Indicates missing data/values from KUOX model statistics.

Trending Headlines

Trending Entertainment Headlines

Calhoun City Radar Loop

Use the map search tool if you want to place a location marker on the radar map...

48 Hour API Forecast

Prob Precip % = Probability of Precipitation.

Calhoun City 36 Hour Forecast

POP = Probability of Precipitation. ** Indicates missing data/values from model statistics.

E-mail the Calhoun City Weather Forecast

Voice your opinion or tell us about page issues...

Calhoun City MS Weather - 2:58 pm

What are people saying?

Contact Us